Regional Weather Roundup
Issued by NWS Midland/Odessa, TX

Skip options and go directly to product.
Home | Oldest Version | Next Version | Current Version | All | Text Only | Save Text | Print | Product List | Glossary On

Skip product version selection by date and time.   
226
ASUS44 KMAF 291410
RWRMAF
MIDLAND AREA WEATHER ROUNDUP
NATIONAL WEATHER SERVICE MIDLAND TX
900 AM CDT MON AUG 29 2016

...IN SOUTHWEST TEXAS AND SOUTHEAST NEW MEXICO...

CITY           SKY/WX    TMP DP  RH WIND       PRES   REMARKS
ALPINE         CLOUDY    64  61  90 NE5       30.27R
ANDREWS        CLOUDY    66  66 100 E7        30.14S
ARTESIA        PTSUNNY   68  64  88 NW6       30.19R
BIG SPRING     PTSUNNY   73  69  88 N7        30.16R
CARLSBAD       PTSUNNY   67  61  81 SW6       30.16S
DRYDEN           N/A     72  68  87 N8        30.09R
FORT STOCKTON  CLOUDY    68  62  81 W5        30.14R
GUAD PASS      FOG       60  60 100 NE24      30.26R VSB 1/4
HOBBS          MOSUNNY   66  66 100 NE7       30.18R
MARFA          CLOUDY   N/A N/A N/A MISG      30.24R
MIDLAND AIRPK  MOSUNNY   69  66  88 NE8       30.14S
MIDLAND INTL   CLOUDY    70  66  87 NE13      30.13R
ODESSA         CLOUDY    69  66  90 E10       30.14R
PECOS          CLOUDY    69  64  83 NW5       30.14S
PRESIDIO       FAIR      70  65  83 E3        30.11R
SEMINOLE       CLOUDY    65  64  96 CALM      30.17R
SNYDER           N/A     72  68  86 N8        30.16R
WINK           LGT RAIN  67  64  90 CALM      30.13R
$$
...OTHER STATIONS IN TEXAS...

CITY           SKY/WX    TMP DP  RH WIND       PRES   REMARKS
ABILENE        MOSUNNY   70  68  93 CALM      30.13R
AMARILLO       CLOUDY    69  66  90 SW3       30.23R
AUSTIN         CLOUDY    77  72  84 N12       30.03R
BROWNSVILLE    SUNNY     83  76  79 NW7       29.93R
CORPUS CHRISTI CLOUDY    77  74  90 N10       29.95R
DALLAS FTW     PTSUNNY   80  72  76 NE5       30.08R
DEL RIO        CLOUDY    77  72  84 E5        30.02R
EL PASO        MOSUNNY   70  61  73 CALM      30.16R
HOUSTON INT    PTSUNNY   76  72  87 NE13      29.97R
LUBBOCK        CLOUDY    67  63  87 N8        30.19R
SAN ANGELO     MOSUNNY   73  68  84 E9        30.11R
SAN ANTONIO    CLOUDY    76  71  85 N10       30.02R
WACO           LGT RAIN  74  73  97 N7        30.06S
WICHITA FALLS  NOT AVBL
$$
...OTHER LOCATIONS IN NEW MEXICO...

CITY           SKY/WX    TMP DP  RH WIND       PRES   REMARKS
ALAMAGORDO     SUNNY     68  54  60 NE6       30.20R
ALBUQUERQUE    MOSUNNY   61  46  57 W5        30.28R
CANNON AFB     DRIZZLE   64  64 100 N10       30.25R
CLOVIS         CLOUDY    63  59  88 N6        30.25S
HOLLOMAN AFB   SUNNY     66  56  70 N6        30.18R
ROSWELL        MOSUNNY   68  59  73 NW5       30.20R
RUIDOSO          N/A     54  52  94 SE8       30.38R
SANTA FE       CLOUDY    58  47  66 NE16      30.36R
TRUTH OR CONSE PTSUNNY   65  47  52 NW5       30.23R
TUCUMCARI      LGT RAIN  64  60  87 NW7       30.24S
$$

USA.gov is the U.S. government's official web portal to all federal, state and local government web resources and services.